Flag for Ukraine Weather past 2 weeks in Kyiv, Ukraine

34 °F


Feels Like: 27 °F
Forecast: 33 / 35 °F
Wind: 8 mph from Southeast

Location: Kyiv

Current Time: Nov 28, 2015 at 5:46:38 PM

Latest Report: Nov 28, 2015 at 5:00 PM

Visibility: N/A

Pressure: 29.95 "Hg

Humidity: 81%

Dew point: 28 °F

Location of KyivLocation

Historic Weather in Kyiv — Graph


Kyiv temperature yesterday

Maximum temperature yesterday: 34 °F (at 1:00 PM)
Minimum temperature yesterday: 25 °F (at 10:30 PM)
Average temperature yesterday: 29 °F

Past Weeks' High & Low Weather Summary

High52 °F (Nov 19, 2:00 PM)100% (Nov 14, 3:00 AM)30.27 "Hg (Nov 14, 3:00 AM)
Low23 °F (Nov 28, 4:00 AM)58% (Nov 13, 4:00 PM)29.27 "Hg (Nov 21, 1:30 PM)
Average38 °F85%29.88 "Hg
* Reported Nov 13 4:00 PM — Nov 28 4:30 PM, Kyiv, Weather by CustomWeather, © 2015

Note: Actual official high and low records may vary slightly from our data, if they occured in-between our weather recording intervals... More about our weather records


Kyiv weather history for previous 24 hours

Time TempWeatherWind HumidityBarometerVisibility
4:30 PM
Sat, Nov 28
32 °FPassing clouds.8 mph87%29.95 "HgN/A
4:00 PM32 °FPassing clouds.6 mph87%29.95 "HgN/A
3:30 PM32 °FPartly sunny.8 mph87%29.95 "Hg6 mi
3:00 PM30 °FPartly sunny.8 mph93%29.95 "Hg6 mi
2:30 PM30 °FLow clouds.8 mph86%29.98 "Hg4 mi
2:00 PM30 °FLow clouds.8 mph86%29.98 "Hg4 mi
1:30 PM28 °FIce fog.8 mph93%29.98 "Hg3 mi
1:00 PM28 °FIce fog.8 mph93%30.01 "Hg2 mi
12:30 PM28 °FIce fog.10 mph93%30.01 "Hg2 mi
12:00 PM28 °FIce fog.10 mph93%30.01 "Hg2 mi
11:30 AM28 °FIce fog.8 mph93%30.04 "Hg2 mi
11:00 AM28 °FIce fog.8 mph93%30.04 "Hg2 mi
10:30 AM28 °FIce fog.8 mph93%30.07 "Hg2 mi
10:00 AM27 °FIce fog.6 mph100%30.07 "Hg2 mi
9:30 AM27 °FIce fog.6 mph93%30.07 "Hg2 mi
9:00 AM27 °FIce fog.8 mph93%30.07 "Hg2 mi
8:30 AM27 °FIce fog.8 mph93%30.07 "Hg2 mi
8:00 AM27 °FIce fog.10 mph93%30.07 "Hg2 mi
7:30 AM27 °FIce fog.8 mph93%30.07 "Hg2 mi
7:00 AM27 °FIce fog.8 mph93%30.09 "Hg1 mi
6:30 AM27 °FIce fog.8 mph93%30.09 "Hg2 mi
6:00 AM27 °FIce fog.8 mph93%30.09 "Hg2 mi
5:30 AM27 °FIce fog.6 mph93%30.09 "Hg3 mi
5:00 AM25 °FIce fog.6 mph93%30.12 "Hg3 mi
4:30 AM25 °FClear.3 mph93%30.12 "Hg4 mi
4:00 AM23 °FIce fog.3 mph93%30.12 "Hg3 mi
3:30 AM25 °FClear.3 mph86%30.15 "Hg4 mi
3:00 AM25 °FClear.6 mph93%30.15 "Hg4 mi
2:00 AM25 °FClear.6 mph86%30.18 "Hg5 mi
1:30 AM27 °FClear.3 mph86%30.18 "Hg6 mi
1:00 AM27 °FClear.6 mph86%30.18 "Hg6 mi
12:30 AM25 °FClear.6 mph86%30.18 "Hg5 mi
12:00 AM27 °FClear.6 mph80%30.18 "Hg6 mi
11:30 PM
Fri, Nov 27
28 °FClear.6 mph80%30.18 "Hg10 mi
11:00 PM28 °FClear.3 mph80%30.18 "Hg10 mi
10:30 PM25 °FClear.3 mph86%30.18 "Hg5 mi
10:00 PM27 °FClear.3 mph86%30.21 "Hg6 mi
9:30 PM28 °FClear.3 mph80%30.18 "Hg10 mi
9:00 PM28 °FPassing clouds.3 mph80%30.21 "HgN/A
8:30 PM28 °FPassing clouds.3 mph80%30.21 "HgN/A
8:00 PM27 °FClear.3 mph80%30.21 "Hg10 mi
7:30 PM28 °FClear.3 mph80%30.21 "Hg10 mi
7:00 PM27 °FClear.3 mph86%30.21 "Hg10 mi
6:30 PM27 °FClear.3 mph86%30.21 "Hg10 mi
6:00 PM27 °FClear.3 mph86%30.21 "Hg10 mi
5:30 PM27 °FClear.6 mph80%30.21 "Hg10 mi
5:00 PM28 °FClear.3 mph80%30.21 "Hg10 mi
Weather by CustomWeather, © 2015

See weather overviewHow to use our weather pages